Weather History for Tallahassee, FL

Change the Weather History Date:

Tuesday, June 18, 2013

  Actual Average Record
Temperature  
Mean Temperature 83 °F 81 °F  
Max Temperature 95 °F 91 °F 102 °F (1998)
Min Temperature 71 °F 70 °F 60 °F (1974)
Degree Days  
Heating Degree Days 0    
Month to date heating degree days 0  
Since 1 June heating degree days 0  
Since 1 July heating degree days 1332  
Cooling Degree Days 18    
Month to date cooling degree days 278  
Year to date cooling degree days 740  
Since 1 June cooling degree days 278  
Growing Degree Days 33 (Base 50)    
Moisture  
Dew Point 68 °F    
Average Humidity 65    
Maximum Humidity 90    
Minimum Humidity 39    
Precipitation  
Precipitation 0.06 in 0.28 in 1.80 in (1960)
Month to date precipitation 3.15 4.44  
Year to date precipitation 25.54 26.10  
Sea Level Pressure  
Sea Level Pressure 29.98 in    
Wind  
Wind Speed 7 mph (SW)    
Max Wind Speed 31 mph    
Max Gust Speed 39 mph    
Visibility 10 miles    
Events Fog , Thunderstorm    
T = Trace of Precipitation, MM = Missing Value Source: NWS Daily Summary

Daily Weather History Graph

Daily Weather History Graph

Search for Another Location

Airport:

Trip Planner

Search our weather history database for the weather conditions in past years. The results will help you decide how hot, cold, wet, or windy it might be!

Date:

Astronomy

Jun. 18, 2013 Rise Set
Actual Time 6:35 AM EDT 8:41 PM EDT
Civil Twilight 6:07 AM EDT 9:09 PM EDT
Nautical Twilight 5:34 AM EDT 9:43 PM EDT
Astronomical Twilight 4:58 AM EDT 10:19 PM EDT
Moon 3:40 PM EDT (6/18) 2:25 AM EDT (6/18)
Length of Visible Light 15h 01m
Length of Day
14h 06m
Waxing Gibbous, 70% of the Moon is Illuminated
Jun 18
Waxing Gibbous
Jun 23
Full
Jun 30
Last Quarter
Jul 8
New
Jul 15
First Quarter

Hourly Weather History & Observations

Time (EDT) Temp. Heat Index Dew Point Humidity Pressure Visibility Wind Dir Wind Speed Gust Speed Precip Events Conditions
12:53 AM 78.1 °F - 69.1 °F 74% 30.00 in 10.0 mi SSW 6.9 mph - N/A   Clear
1:53 AM 75.9 °F - 69.1 °F 79% 30.00 in 10.0 mi Calm Calm - N/A   Clear
2:53 AM 73.9 °F - 69.1 °F 85% 29.99 in 10.0 mi Calm Calm - N/A   Clear
3:53 AM 72.0 °F - 68.0 °F 87% 29.99 in 10.0 mi SSE 3.5 mph - N/A   Clear
4:53 AM 72.0 °F - 68.0 °F 87% 29.99 in 10.0 mi SSW 3.5 mph - N/A   Partly Cloudy
5:53 AM 72.0 °F - 68.0 °F 87% 29.99 in 10.0 mi Calm Calm - N/A Fog Patches of Fog
6:53 AM 71.1 °F - 68.0 °F 90% 30.00 in 10.0 mi South 3.5 mph - N/A Fog Patches of Fog
7:53 AM 75.0 °F - 70.0 °F 84% 30.02 in 10.0 mi Calm Calm - N/A   Partly Cloudy
8:53 AM 82.0 °F 86.3 °F 71.1 °F 69% 30.03 in 10.0 mi SW 8.1 mph - N/A   Partly Cloudy
9:53 AM 86.0 °F 90.7 °F 70.0 °F 59% 30.03 in 10.0 mi WSW 10.4 mph - N/A   Scattered Clouds
10:53 AM 88.0 °F 91.4 °F 68.0 °F 51% 30.03 in 10.0 mi SW 13.8 mph 17.3 mph N/A   Scattered Clouds
11:53 AM 89.1 °F 92.9 °F 68.0 °F 50% 30.01 in 10.0 mi SSW 9.2 mph 19.6 mph N/A   Mostly Cloudy
12:53 PM 93.0 °F 95.0 °F 64.9 °F 39% 30.00 in 10.0 mi SW 18.4 mph - N/A   Scattered Clouds
1:53 PM 91.9 °F 94.1 °F 64.9 °F 41% 29.98 in 10.0 mi WSW 9.2 mph - N/A   Mostly Cloudy
2:38 PM 87.8 °F 95.6 °F 73.4 °F 62% 29.98 in 10.0 mi WSW 8.1 mph - 0.06 in Thunderstorm Thunderstorm
2:53 PM 90.0 °F 96.4 °F 71.1 °F 54% 29.96 in 10.0 mi SW 10.4 mph - 0.06 in Thunderstorm Thunderstorm
3:08 PM 89.6 °F 96.2 °F 71.6 °F 55% 29.97 in 10.0 mi SW 10.4 mph - N/A   Scattered Clouds
3:53 PM 91.0 °F 94.3 °F 66.9 °F 45% 29.96 in 10.0 mi SSW 11.5 mph - N/A   Scattered Clouds
4:53 PM 91.9 °F 94.1 °F 64.9 °F 41% 29.94 in 10.0 mi SSW 15.0 mph - N/A   Overcast
5:53 PM 91.9 °F 93.3 °F 64.0 °F 39% 29.92 in 10.0 mi SW 13.8 mph - N/A   Scattered Clouds
6:53 PM 91.0 °F 93.0 °F 64.9 °F 42% 29.91 in 10.0 mi SW 12.7 mph - N/A   Scattered Clouds
7:53 PM 88.0 °F 87.9 °F 61.0 °F 40% 29.93 in 10.0 mi SW 6.9 mph - N/A   Partly Cloudy
8:53 PM 84.0 °F 86.3 °F 66.0 °F 55% 29.95 in 10.0 mi WSW 8.1 mph - N/A   Partly Cloudy
9:53 PM 81.0 °F 83.8 °F 68.0 °F 65% 29.96 in 10.0 mi SSW 4.6 mph - N/A   Partly Cloudy
10:53 PM 79.0 °F - 70.0 °F 74% 29.99 in 10.0 mi SW 5.8 mph - N/A   Partly Cloudy
11:53 PM 77.0 °F - 70.0 °F 79% 29.99 in 10.0 mi SSW 5.8 mph - N/A   Clear